Content
SEND FEEDBACK

Daily
Averages
Monthly
Summary
United States of America

FARMINGDALE, SOUTH DAKOTA


Home > North America > United States > South Dakota
Elevation: 2990 feet     Latitude: 43 59N     Longitude: 102 54W

WEATHER
 
SELECT A DAY
Number of Records: 203,484;   Date Range: 1/1/95 - 10/29/14
 
SHARE

PRINT THIS DATA

[ ← Previous Day ]
WEATHER ALMANAC - JANUARY 14, 2013
[ Next Day → ]
[ °C ]   °F
Weather ElementAverageHighLow
Temperature5.7 °F17.6 °F (12:52 pm)-2 °F (2:52 am)
Dewpoint-1.9 °F6.1 °F (1:52 pm)-8 °F (10:52 pm)
Humidity71.6 %83 % (7:52 pm)58 % (12:52 pm)
Barometer30.28 in30.37 in (7:52 am)30.07 in (12:52 pm)
Wind Speed2.6 mph8.1 mph (5:52 am)
Weather ElementAverage
Visibility10 mi
Wind DirectionENE (69.5 °)

Weather ElementTotal
Precipitation---
Heating Degree Days57.2 (Base 65)
Averaged from 22 records on January 14, 2013
WEATHER CONDITIONS BREAKOUT
WIND DIRECTION BREAKOUT
WEATHER BY HOUR - JANUARY 14, 2013
[ °C ]   °F
Local TimeTemperatureDewpointHumidityBarometerVisibilityWind DirectionWind SpeedGust SpeedPrecipitationEventsConditions
2:52 AM-2.0 °F-7.1 °F79 %30.33 in10.0 miCalmPartly Cloudy
3:52 AM-0.9 °F-6.0 °F79 %30.33 in10.0 miCalmPartly Cloudy
4:52 AM1.4 °F-5.8 °F72 %30.10 in10.0 miCalmClear
5:52 AM5.0 °F-4.0 °F66 %30.33 in10.0 miSSW (210°)8.1 mphOvercast
6:52 AM7.0 °F-2.0 °F67 %30.35 in10.0 miSouth (190°)3.5 mphOvercast
7:52 AM6.1 °F-2.9 °F67 %30.37 in10.0 miCalmMostly Cloudy
8:52 AM6.1 °F-2.9 °F67 %30.35 in10.0 miSE (130°)3.5 mphClear
9:52 AM8.1 °F-0.9 °F67 %30.35 in10.0 miNE (40°)3.5 mphClear
10:52 AM10.9 °F1.0 °F64 %30.32 in10.0 miCalmClear
11:52 AM15.1 °F3.0 °F59 %30.28 in10.0 miEast (100°)4.6 mphClear
12:52 PM17.6 °F5.0 °F58 %30.07 in10.0 miSE (130°)6.9 mphMostly Cloudy
1:52 PM16.0 °F6.1 °F65 %30.27 in10.0 miSE (130°)4.6 mphClear
2:52 PM16.0 °F6.1 °F65 %30.29 in10.0 miESE (120°)5.8 mphMostly Cloudy
3:52 PM14.0 °F6.1 °F71 %30.29 in10.0 miSE (130°)6.9 mphPartly Cloudy
4:52 PM7.0 °F1.0 °F77 %30.29 in10.0 miSSE (150°)3.5 mphClear
5:52 PM3.0 °F-2.9 °F76 %30.30 in10.0 miCalmClear
6:52 PM1.9 °F-2.9 °F80 %30.29 in10.0 miESE (120°)3.5 mphClear
7:52 PM-0.9 °F-5.1 °F83 %30.28 in10.0 miCalmClear
8:52 PM-2.0 °F-6.0 °F83 %30.27 in10.0 miCalmClear
9:52 PM-0.9 °F-6.0 °F79 %30.24 in10.0 miEast (80°)3.5 mphClear
10:52 PM-2.0 °F-8.0 °F76 %30.24 in10.0 miCalmClear
11:52 PM-0.9 °F-7.1 °F75 %30.22 in10.0 miCalmClear
Hourly data recorded from KRAP, located miles away from Farmingdale, South Dakota







STORIES FROM OUR PARTNERS